GW7157 Weather Reports


Display with metric or nautical units.
time (UTC)temp
F
wind
direction
speed
MPH
gust
MPH
rain 1hr
in
rain 24hr
in
rain mn
in
humidity
%
barometer
mb
20260906214150 85 136 11.0 19.0 0.00 0.00 0.00 31 1022.0
20260906213649 85 154 13.0 16.0 0.00 0.00 0.00 32 1022.2
20260906213144 84 176 2.0 13.0 0.00 0.00 0.00 33 1022.2
20260906212641 84 190 8.0 13.0 0.00 0.00 0.00 32 1022.3
20260906212137 84 151 12.0 17.0 0.00 0.00 0.00 33 1022.0
20260906211637 84 116 4.0 13.0 0.00 0.00 0.00 33 1022.0
20260906211132 84 139 6.0 10.0 0.00 0.00 0.00 34 1022.4
20260906210628 83 190 8.0 11.0 0.00 0.00 0.00 35 1022.5
20260906210122 84 167 8.0 15.0 0.00 0.00 0.00 34 1022.2
20260906205618 84 145 7.0 11.0 0.00 0.00 0.00 34 1022.4
20260906205114 84 92 2.0 10.0 0.00 0.00 0.00 35 1022.4
20260906204613 83 160 4.0 13.0 0.00 0.00 0.00 34 1022.3
20260906204108 84 140 8.0 13.0 0.00 0.00 0.00 33 1022.6
20260906203608 83 132 2.0 11.0 0.00 0.00 0.00 34 1022.9
20260906203103 83 139 4.0 13.0 0.00 0.00 0.00 34 1022.8
20260906202559 83 138 8.0 10.0 0.00 0.00 0.00 34 1022.6
20260906202100 83 186 10.0 13.0 0.00 0.00 0.00 34 1022.9
20260906201600 83 200 4.0 9.0 0.00 0.00 0.00 34 1022.9
20260906201059 83 93 3.0 10.0 0.00 0.00 0.00 35 1022.8
20260906200555 83 164 3.0 8.0 0.00 0.00 0.00 34 1023.0
20260906200051 83 201 7.0 13.0 0.00 0.00 0.00 33 1023.0
20260906195546 83 209 6.0 11.0 0.00 0.00 0.00 34 1023.0
20260906195043 83 190 8.0 11.0 0.00 0.00 0.00 33 1023.0
20260906194538 83 130 6.0 7.0 0.00 0.00 0.00 34 1023.1
20260906194034 83 135 2.0 6.0 0.00 0.00 0.00 33 1023.1
20260906193533 83 205 10.0 11.0 0.00 0.00 0.00 32 1023.4
20260906193029 82 184 11.0 11.0 0.00 0.00 0.00 32 1023.5
20260906192524 83 165 6.0 9.0 0.00 0.00 0.00 33 1023.4
20260906192023 82 176 6.0 9.0 0.00 0.00 0.00 32 1023.4
20260906191519 83 177 4.0 14.0 0.00 0.00 0.00 33 1023.5
20260906191017 83 109 4.0 8.0 0.00 0.00 0.00 32 1023.3
20260906190517 82 91 1.0 9.0 0.00 0.00 0.00 34 1023.6
20260906190012 82 188 2.0 9.0 0.00 0.00 0.00 34 1023.6
20260906185511 82 132 8.0 11.0 0.00 0.00 0.00 34 1023.9
20260906185010 82 153 11.0 15.0 0.00 0.00 0.00 34 1023.7
20260906184505 82 62 6.0 8.0 0.00 0.00 0.00 34 1023.7
20260906184001 81 196 5.0 6.0 0.00 0.00 0.00 34 1024.1
20260906183456 81 77 3.0 7.0 0.00 0.00 0.00 35 1024.1
20260906182952 82 139 6.0 14.0 0.00 0.00 0.00 34 1024.4
20260906182447 82 162 1.0 10.0 0.00 0.00 0.00 35 1024.4
20260906181943 81 221 6.0 11.0 0.00 0.00 0.00 35 1024.4
20260906181439 82 174 10.0 13.0 0.00 0.00 0.00 34 1024.7
20260906180934 81 199 4.0 10.0 0.00 0.00 0.00 35 1024.7
20260906180429 81 79 4.0 11.0 0.00 0.00 0.00 36 1024.8
20260906175927 81 155 4.0 10.0 0.00 0.00 0.00 34 1024.8
20260906175422 82 122 4.0 8.0 0.00 0.00 0.00 33 1024.8
20260906174920 81 198 6.0 8.0 0.00 0.00 0.00 34 1025.0
20260906174420 81 181 5.0 9.0 0.00 0.00 0.00 34 1025.1
20260906173915 81 117 5.0 7.0 0.00 0.00 0.00 34 1025.2
20260906173410 81 205 6.0 10.0 0.00 0.00 0.00 33 1025.2
20260906172909 80 76 1.0 8.0 0.00 0.00 0.00 35 1025.1
20260906172406 81 88 8.0 11.0 0.00 0.00 0.00 32 1025.3
20260906171901 81 94 4.0 7.0 0.00 0.00 0.00 33 1025.5
20260906171355 81 75 2.0 7.0 0.00 0.00 0.00 33 1025.6
20260906170851 80 87 3.0 7.0 0.00 0.00 0.00 33 1025.3
20260906170347 79 165 6.0 7.0 0.00 0.00 0.00 33 1025.3
20260906165843 80 222 5.0 9.0 0.00 0.00 0.00 32 1025.3
20260906165342 80 172 7.0 9.0 0.00 0.00 0.00 31 1025.5
20260906164838 80 76 4.0 9.0 0.00 0.00 0.00 32 1025.3
20260906164337 81 166 3.0 7.0 0.00 0.00 0.00 31 1025.3
20260906163833 81 181 4.0 7.0 0.00 0.00 0.00 30 1025.5
20260906163329 81 162 4.0 4.0 0.00 0.00 0.00 30 1025.5
20260906162826 80 108 3.0 4.0 0.00 0.00 0.00 32 1025.5
20260906162325 80 135 3.0 7.0 0.00 0.00 0.00 32 1025.5
20260906161821 80 79 1.0 6.0 0.00 0.00 0.00 31 1025.5
20260906161320 80 117 3.0 4.0 0.00 0.00 0.00 31 1025.2
20260906160819 80 144 2.0 3.0 0.00 0.00 0.00 31 1025.3
20260906160313 80 61 2.0 10.0 0.00 0.00 0.00 30 1025.6
20260906155811 81 48 1.0 3.0 0.00 0.00 0.00 30 1025.6
20260906155307 81 82 1.0 3.0 0.00 0.00 0.00 30 1025.5
20260906154802 80 65 1.0 2.0 0.00 0.00 0.00 31 1025.2
20260906154256 79 59 2.0 2.0 0.00 0.00 0.00 31 1025.3
20260906153754 78 57 0.0 2.0 0.00 0.00 0.00 33 1025.3
20260906153249 78 61 1.0 3.0 0.00 0.00 0.00 33 1025.2
20260906152745 78 69 2.0 2.0 0.00 0.00 0.00 34 1025.6
20260906152245 77 49 2.0 3.0 0.00 0.00 0.00 34 1025.3
20260906151744 77 41 2.0 3.0 0.00 0.00 0.00 34 1025.3
20260906151240 76 68 1.0 2.0 0.00 0.00 0.00 37 1025.3
20260906150735 76 52 3.0 4.0 0.00 0.00 0.00 34 1025.3
20260906150231 77 54 2.0 2.0 0.00 0.00 0.00 36 1025.2
20260906145729 76 79 1.0 2.0 0.00 0.00 0.00 36 1025.3
20260906145228 75 63 1.0 1.0 0.00 0.00 0.00 38 1025.1
20260906144724 75 63 2.0 2.0 0.00 0.00 0.00 37 1025.2
20260906144219 74 67 1.0 2.0 0.00 0.00 0.00 38 1025.2
20260906143718 75 63 1.0 2.0 0.00 0.00 0.00 38 1025.3
20260906143216 74 44 2.0 2.0 0.00 0.00 0.00 40 1025.2
20260906142715 74 69 1.0 2.0 0.00 0.00 0.00 40 1025.0
20260906142210 73 61 1.0 1.0 0.00 0.00 0.00 40 1024.8
20260906141709 73 69 0.0 1.0 0.00 0.00 0.00 39 1024.8
20260906141204 72 69 1.0 1.0 0.00 0.00 0.00 41 1025.2
20260906140703 72 69 1.0 1.0 0.00 0.00 0.00 40 1025.2
20260906140158 72 78 1.0 1.0 0.00 0.00 0.00 42 1025.2
20260906135655 70 78 0.0 1.0 0.00 0.00 0.00 43 1025.1
20260906135151 70 88 2.0 2.0 0.00 0.00 0.00 46 1025.1
20260906134647 70 85 1.0 2.0 0.00 0.00 0.00 47 1024.8
20260906134141 71 91 1.0 1.0 0.00 0.00 0.00 44 1024.8
20260906133637 70 112 0.0 0.0 0.00 0.00 0.00 47 1024.7
20260906133137 69 112 0.0 0.0 0.00 0.00 0.00 48 1024.7
20260906132633 69 113 1.0 1.0 0.00 0.00 0.00 48 1024.8
20260906132128 67 235 0.0 0.0 0.00 0.00 0.00 48 1024.8
20260906131624 66 244 2.0 2.0 0.00 0.00 0.00 48 1024.7
20260906131119 65 244 0.0 0.0 0.00 0.00 0.00 50 1024.8
20260906130614 66 244 0.0 1.0 0.00 0.00 0.00 50 1024.8
20260906130109 66 244 0.0 0.0 0.00 0.00 0.00 49 1024.6
20260906125607 65 244 1.0 1.0 0.00 0.00 0.00 49 1024.6
20260906125106 64 244 0.0 0.0 0.00 0.00 0.00 51 1024.6
20260906124602 63 244 0.0 1.0 0.00 0.00 0.00 51 1024.6
20260906124056 63 244 1.0 1.0 0.00 0.00 0.00 51 1024.6
20260906123555 64 244 0.0 0.0 0.00 0.00 0.00 50 1024.7
20260906123051 63 244 2.0 2.0 0.00 0.00 0.00 50 1024.4
20260906122550 63 244 0.0 0.0 0.00 0.00 0.00 51 1024.5
20260906122046 63 244 1.0 1.0 0.00 0.00 0.00 53 1024.5
20260906121542 62 243 1.0 1.0 0.00 0.00 0.00 52 1024.4
20260906121039 63 244 0.0 0.0 0.00 0.00 0.00 54 1024.1
20260906120533 62 243 1.0 1.0 0.00 0.00 0.00 52 1024.5
20260906120031 63 243 0.0 0.0 0.00 0.00 0.00 55 1024.2
20260906115531 63 244 0.0 2.0 0.00 0.00 0.00 55 1024.2
20260906115026 62 276 0.0 0.0 0.00 0.00 0.00 54 1024.4
20260906114526 62 176 0.0 0.0 0.00 0.00 0.00 54 1024.6
20260906114022 63 176 2.0 3.0 0.00 0.00 0.00 54 1024.1
20260906113520 64 175 1.0 1.0 0.00 0.00 0.00 51 1024.1
20260906113016 64 177 0.0 1.0 0.00 0.00 0.00 50 1024.1
20260906112510 64 151 0.0 1.0 0.00 0.00 0.00 51 1024.0
20260906112007 63 151 1.0 1.0 0.00 0.00 0.00 51 1024.0
20260906111506 63 151 0.0 0.0 0.00 0.00 0.00 53 1023.9
20260906111002 64 150 0.0 0.0 0.00 0.00 0.00 53 1023.9
20260906110456 64 150 0.0 0.0 0.00 0.00 0.00 52 1024.0
20260906105955 68 147 2.0 2.0 0.00 0.00 0.00 49 1023.9
20260906105451 68 330 2.0 2.0 0.00 0.00 0.00 43 1023.6
20260906104947 68 300 2.0 3.0 0.00 0.00 0.00 43 1023.6
20260906104445 68 260 2.0 2.0 0.00 0.00 0.00 44 1024.0
20260906103945 68 257 2.0 3.0 0.00 0.00 0.00 45 1023.7
20260906103443 66 258 3.0 3.0 0.00 0.00 0.00 47 1023.7
20260906102938 65 253 2.0 2.0 0.00 0.00 0.00 51 1024.1
20260906102438 66 336 1.0 1.0 0.00 0.00 0.00 52 1024.2
20260906101933 68 325 1.0 3.0 0.00 0.00 0.00 51 1024.4
20260906101428 67 219 5.0 8.0 0.00 0.00 0.00 52 1024.4
20260906100924 69 219 4.0 6.0 0.00 0.00 0.00 51 1024.2
20260906100424 69 169 2.0 3.0 0.00 0.00 0.00 42 1024.2
20260906095918 70 322 0.0 2.0 0.00 0.00 0.00 42 1024.2
20260906095414 69 333 1.0 2.0 0.00 0.00 0.00 42 1024.2
20260906094914 68 329 2.0 2.0 0.00 0.00 0.00 44 1024.1
20260906094408 67 315 0.0 0.0 0.00 0.00 0.00 45 1024.5
20260906093905 67 332 0.0 0.0 0.00 0.00 0.00 46 1024.4
20260906093401 67 332 0.0 0.0 0.00 0.00 0.00 45 1024.2
20260906092900 67 332 0.0 0.0 0.00 0.00 0.00 45 1024.1
20260906092400 68 332 0.0 0.0 0.00 0.00 0.00 45 1024.2
20260906091856 69 332 0.0 1.0 0.00 0.00 0.00 44 1024.4
20260906091352 69 332 2.0 2.0 0.00 0.00 0.00 44 1023.9
20260906090848 69 332 2.0 2.0 0.00 0.00 0.00 45 1024.1
20260906090347 69 332 2.0 3.0 0.00 0.00 0.00 45 1023.9
20260906085842 69 334 1.0 2.0 0.00 0.00 0.00 45 1024.2
20260906085341 69 340 1.0 3.0 0.00 0.00 0.00 46 1024.1
20260906084836 69 340 2.0 3.0 0.00 0.00 0.00 46 1024.0
20260906084336 69 311 1.0 4.0 0.00 0.00 0.00 47 1024.1
20260906083831 69 313 1.0 3.0 0.00 0.00 0.00 48 1024.0
20260906083327 68 314 2.0 4.0 0.00 0.00 0.00 49 1024.1
20260906082826 67 333 4.0 6.0 0.00 0.00 0.00 54 1024.0
20260906082321 67 318 1.0 2.0 0.00 0.00 0.00 55 1024.2
20260906081817 67 331 1.0 3.0 0.00 0.00 0.00 57 1024.2
20260906081313 67 334 2.0 3.0 0.00 0.00 0.00 57 1024.2
20260906080809 66 331 2.0 2.0 0.00 0.00 0.00 58 1024.4
20260906080305 65 6 1.0 1.0 0.00 0.00 0.00 60 1024.4
20260906075804 65 1 1.0 1.0 0.00 0.00 0.00 61 1024.5
20260906075306 64 0 0.0 0.0 0.00 0.00 0.00 64 1024.6
20260906074759 65 0 0.0 1.0 0.00 0.00 0.00 64 1024.4
20260906074259 65 359 0.0 0.0 0.00 0.00 0.00 63 1024.4
20260906073758 65 342 0.0 1.0 0.00 0.00 0.00 64 1024.5
20260906073253 66 340 0.0 0.0 0.00 0.00 0.00 63 1024.4
20260906072749 66 336 1.0 3.0 0.00 0.00 0.00 63 1024.4
20260906072244 66 321 1.0 1.0 0.00 0.00 0.00 63 1024.4
20260906071741 66 321 1.0 1.0 0.00 0.00 0.00 63 1024.5
20260906071240 66 273 0.0 1.0 0.00 0.00 0.00 63 1024.8
20260906070737 66 266 0.0 2.0 0.00 0.00 0.00 62 1024.7
20260906070232 66 299 1.0 2.0 0.00 0.00 0.00 63 1024.7
20260906065732 65 288 1.0 1.0 0.00 0.00 0.00 65 1024.7
20260906065227 64 172 0.0 1.0 0.00 0.00 0.00 66 1024.8
20260906064722 64 172 0.0 1.0 0.00 0.00 0.00 66 1024.8
20260906064218 64 173 1.0 1.0 0.00 0.00 0.00 67 1025.0
20260906063713 64 172 0.0 0.0 0.00 0.00 0.00 66 1024.7
20260906063209 65 203 0.0 0.0 0.00 0.00 0.00 65 1024.8
20260906062704 65 203 0.0 1.0 0.00 0.00 0.00 64 1024.7
20260906062203 66 203 1.0 1.0 0.00 0.00 0.00 63 1025.0
20260906061659 67 203 0.0 1.0 0.00 0.00 0.00 61 1024.7
20260906061155 67 204 3.0 3.0 0.00 0.00 0.00 62 1024.7
20260906060651 67 203 0.0 2.0 0.00 0.00 0.00 62 1024.7
20260906060148 66 204 2.0 3.0 0.00 0.00 0.00 65 1024.6
20260906055643 65 203 1.0 1.0 0.00 0.00 0.00 65 1024.5
20260906055138 67 203 0.0 0.0 0.00 0.00 0.00 62 1024.5
20260906054633 68 203 0.0 2.0 0.00 0.00 0.00 60 1024.1
20260906054128 68 204 2.0 3.0 0.00 0.00 0.00 61 1024.1
20260906053626 67 204 2.0 3.0 0.00 0.00 0.00 62 1024.4
20260906053126 66 203 3.0 3.0 0.00 0.00 0.00 64 1024.4
20260906052621 67 203 0.0 0.0 0.00 0.00 0.00 61 1024.4
20260906052118 68 203 0.0 2.0 0.00 0.00 0.00 61 1024.2
20260906051614 66 204 3.0 2.0 0.00 0.00 0.00 63 1024.4
20260906051108 66 203 2.0 1.0 0.00 0.00 0.00 63 1024.4
20260906050604 68 203 0.0 0.0 0.00 0.00 0.00 60 1024.5
20260906050059 69 204 1.0 2.0 0.00 0.00 0.00 58 1024.4
20260906045557 69 204 2.0 3.0 0.00 0.00 0.00 59 1024.5
20260906045053 67 203 3.0 3.0 0.00 0.00 0.00 61 1024.5
20260906044548 67 202 0.0 0.0 0.00 0.00 0.00 61 1024.6
20260906044044 68 202 0.0 0.0 0.00 0.00 0.00 60 1024.7
20260906043539 68 202 1.0 1.0 0.00 0.00 0.00 60 1024.5
20260906043036 68 202 0.0 0.0 0.00 0.00 0.00 60 1024.6
20260906042534 69 202 0.0 0.0 0.00 0.00 0.00 59 1024.8
20260906042029 69 202 1.0 2.0 0.00 0.00 0.00 58 1024.7
20260906041525 70 202 1.0 2.0 0.00 0.00 0.00 57 1024.8
20260906041025 69 202 2.0 2.0 0.00 0.00 0.00 58 1024.6
20260906040520 69 187 1.0 2.0 0.00 0.00 0.00 57 1024.5
20260906040016 70 185 0.0 0.0 0.00 0.00 0.00 56 1024.5
20260906035511 69 207 1.0 3.0 0.00 0.00 0.00 58 1024.7
20260906035007 68 216 0.0 0.0 0.00 0.00 0.00 57 1024.8
20260906034506 69 216 0.0 1.0 0.00 0.00 0.00 56 1024.7
20260906034001 69 216 0.0 0.0 0.00 0.00 0.00 55 1024.6
20260906033456 71 216 0.0 1.0 0.00 0.00 0.00 51 1024.7
20260906032952 72 218 2.0 3.0 0.00 0.00 0.00 51 1024.8
20260906032449 71 220 2.0 3.0 0.00 0.00 0.00 52 1024.6
20260906031948 72 210 2.0 2.0 0.00 0.00 0.00 51 1024.8
20260906031444 71 234 2.0 3.0 0.00 0.00 0.00 50 1024.5
20260906030939 71 235 2.0 3.0 0.00 0.00 0.00 47 1024.5
20260906030433 72 235 2.0 2.0 0.00 0.00 0.00 45 1024.5
20260906025928 73 234 1.0 2.0 0.00 0.00 0.00 46 1024.5
20260906025422 72 246 2.0 4.0 0.00 0.00 0.00 46 1024.1
20260906024921 71 227 6.0 6.0 0.00 0.00 0.00 48 1024.2
20260906024420 70 176 1.0 2.0 0.00 0.00 0.00 45 1024.4
20260906023916 70 211 1.0 2.0 0.00 0.00 0.00 41 1024.4
20260906023412 70 84 0.0 1.0 0.00 0.00 0.00 38 1024.1
20260906022912 69 65 0.0 6.0 0.00 0.00 0.00 38 1024.1
20260906022407 71 68 0.0 2.0 0.00 0.00 0.00 39 1023.9
20260906021902 72 236 0.0 0.0 0.00 0.00 0.00 35 1023.4
20260906021402 73 238 2.0 2.0 0.00 0.00 0.00 34 1023.4
20260906020857 74 244 2.0 2.0 0.00 0.00 0.00 33 1023.4
20260906020357 73 240 1.0 2.0 0.00 0.00 0.00 33 1023.1
20260906015851 74 234 2.0 3.0 0.00 0.00 0.00 33 1023.0
20260906015351 74 234 2.0 3.0 0.00 0.00 0.00 33 1023.0
20260906014851 73 251 2.0 2.0 0.00 0.00 0.00 35 1023.3
20260906014350 74 252 1.0 1.0 0.00 0.00 0.00 34 1023.0
20260906013847 75 252 1.0 2.0 0.00 0.00 0.00 33 1022.9
20260906013342 75 246 2.0 3.0 0.00 0.00 0.00 33 1022.8
20260906012837 74 254 2.0 2.0 0.00 0.00 0.00 33 1022.9
20260906012332 74 252 1.0 1.0 0.00 0.00 0.00 34 1022.9
20260906011832 75 252 0.0 1.0 0.00 0.00 0.00 34 1022.8
20260906011327 75 252 0.0 1.0 0.00 0.00 0.00 33 1022.9
20260906010823 75 252 2.0 2.0 0.00 0.00 0.00 33 1022.9
20260906010319 75 253 1.0 1.0 0.00 0.00 0.00 33 1022.8
20260906005814 75 253 2.0 2.0 0.00 0.00 0.00 34 1023.0
20260906005313 77 206 2.0 2.0 0.00 0.00 0.00 34 1023.0
20260906004812 78 292 0.0 1.0 0.00 0.00 0.00 33 1023.0
20260906004312 78 269 0.0 0.0 0.00 0.00 0.00 32 1023.1
20260906003807 79 258 0.0 2.0 0.00 0.00 0.00 30 1023.0
20260906003303 80 258 0.0 0.0 0.00 0.00 0.00 30 1023.3
20260906002758 80 257 0.0 2.0 0.00 0.00 0.00 29 1023.3
20260906002257 80 260 2.0 2.0 0.00 0.00 0.00 28 1023.3
20260906001753 81 294 1.0 1.0 0.00 0.00 0.00 27 1023.0
20260906001248 82 295 0.0 0.0 0.00 0.00 0.00 27 1023.1
20260906000743 82 293 0.0 0.0 0.00 0.00 0.00 28 1023.3
20260906000243 82 289 0.0 0.0 0.00 0.00 0.00 27 1023.1
20260905235738 82 282 0.0 0.0 0.00 0.00 0.00 27 1023.1
20260905235238 82 274 0.0 0.0 0.00 0.00 0.00 27 1023.3
20260905234734 82 274 0.0 0.0 0.00 0.00 0.00 27 1023.0
20260905234229 82 264 0.0 1.0 0.00 0.00 0.00 27 1023.1
20260905233724 82 260 0.0 0.0 0.00 0.00 0.00 27 1023.0
20260905233223 81 259 0.0 0.0 0.00 0.00 0.00 27 1022.9
20260905232718 81 259 0.0 1.0 0.00 0.00 0.00 27 1023.0
20260905232214 82 258 1.0 2.0 0.00 0.00 0.00 27 1023.1
20260905231710 82 137 1.0 1.0 0.00 0.00 0.00 27 1022.9
20260905231205 82 142 0.0 1.0 0.00 0.00 0.00 28 1023.0
20260905230701 82 181 0.0 0.0 0.00 0.00 0.00 27 1022.8
20260905230159 82 181 0.0 0.0 0.00 0.00 0.00 27 1023.0
20260905225659 82 45 0.0 2.0 0.00 0.00 0.00 26 1023.0
20260905225154 83 100 1.0 2.0 0.00 0.00 0.00 26 1022.9
20260905224654 81 257 0.0 0.0 0.00 0.00 0.00 27 1023.1
20260905224153 80 254 0.0 1.0 0.00 0.00 0.00 29 1023.1
20260905223650 80 342 0.0 1.0 0.00 0.00 0.00 30 1023.3
20260905223147 80 267 2.0 2.0 0.00 0.00 0.00 30 1023.1
20260905222643 80 340 1.0 3.0 0.00 0.00 0.00 31 1023.4
20260905222143 80 344 4.0 6.0 0.00 0.00 0.00 31 1023.3
20260905221638 80 325 2.0 6.0 0.00 0.00 0.00 31 1023.4
20260905221135 80 347 1.0 2.0 0.00 0.00 0.00 32 1023.3
20260905220630 79 256 2.0 2.0 0.00 0.00 0.00 33 1023.4
20260905220126 79 280 1.0 2.0 0.00 0.00 0.00 31 1023.7
20260905215626 79 264 1.0 2.0 0.00 0.00 0.00 31 1023.5
20260905215121 80 280 2.0 2.0 0.00 0.00 0.00 31 1023.5
20260905214618 80 325 1.0 1.0 0.00 0.00 0.00 29 1023.6